Gilze-Rijen, Netherlands

4:09 PM CEST on September 20, 2017 (GMT +0200)
Gilze-Rijen Air Base

Weather History for EHGR - March, 2013

Change the Weather History Date:

Wednesday, March 20, 2013

  Actual Average Record
Temperature  
Mean Temperature 34 °F -  
Max Temperature 37 °F 54 °F 72 °F (2014)
Min Temperature 32 °F 38 °F 23 °F (2001)
Degree Days  
Heating Degree Days 30    
Moisture  
Dew Point 31 °F    
Average Humidity 92    
Maximum Humidity 100    
Minimum Humidity 75    
Precipitation  
Precipitation 0.00 in - - ()
Sea Level Pressure  
Sea Level Pressure 29.67 in    
Wind  
Wind Speed 8 mph ()    
Max Wind Speed 13 mph    
Max Gust Speed -    
Visibility 3.3 miles    
Events Rain , Snow    
Averages and records for this station are not official NWS values.
T = Trace of Precipitation, MM = Missing Value Source: Averaged Metar Reports

Daily Weather History Graph

Daily Weather History Graph

Search for Another Location

Airport or City:

Trip Planner

Search our weather history database for the weather conditions in past years. The results will help you decide how hot, cold, wet, or windy it might be!

Date:

Astronomy

Mar. 20, 2013 Rise Set
Actual Time 6:42 AM CET 6:53 PM CET
Civil Twilight 6:09 AM CET 7:26 PM CET
Nautical Twilight 5:30 AM CET 8:06 PM CET
Astronomical Twilight 4:49 AM CET 8:47 PM CET
Moon 11:36 AM CET 2:49 AM CET
Length of Visible Light 13h 17m
Length of Day
12h 10m
First Quarter, 57% of the Moon is Illuminated
Mar 20
First Quarter
Mar 27
Full
Apr 3
Last Quarter
Apr 10
New
Apr 18
First Quarter

Hourly Weather History & Observations

Time (CET) Temp. Windchill Dew Point Humidity Pressure Visibility Wind Dir Wind Speed Gust Speed Precip Events Conditions
12:25 AM 35.6 °F 29.2 °F 33.8 °F 93% 29.53 in 1.4 mi East 8.1 mph - N/A   Overcast
12:55 AM 33.8 °F 27.7 °F 33.8 °F 100% 29.53 in 1.2 mi East 6.9 mph - N/A   Overcast
1:25 AM 33.8 °F 27.7 °F 33.8 °F 100% 29.53 in 1.2 mi East 6.9 mph - N/A   Overcast
1:55 AM 33.8 °F 27.0 °F 33.8 °F 100% 29.53 in 1.2 mi East 8.1 mph - N/A   Overcast
2:25 AM 33.8 °F 27.0 °F 33.8 °F 100% 29.53 in 1.2 mi East 8.1 mph - N/A   Overcast
2:55 AM 33.8 °F 27.7 °F 32.0 °F 93% 29.53 in 1.2 mi East 6.9 mph - N/A   Overcast
3:25 AM 33.8 °F 26.4 °F 33.8 °F 100% 29.53 in 1.2 mi East 9.2 mph - N/A   Overcast
3:55 AM 33.8 °F 26.4 °F 33.8 °F 100% 29.53 in 1.2 mi East 9.2 mph - N/A   Overcast
4:25 AM 33.8 °F 26.4 °F 33.8 °F 100% 29.53 in 1.1 mi East 9.2 mph - N/A   Overcast
4:55 AM 33.8 °F 27.0 °F 33.8 °F 100% 29.53 in 1.1 mi East 8.1 mph - N/A   Overcast
5:25 AM 33.8 °F 27.0 °F 33.8 °F 100% 29.53 in 1.2 mi ENE 8.1 mph - N/A   Overcast
5:55 AM 33.8 °F 25.8 °F 32.0 °F 93% 29.53 in 1.4 mi East 10.4 mph - N/A Rain Light Rain
6:25 AM 33.8 °F 27.0 °F 32.0 °F 93% 29.53 in 1.5 mi East 8.1 mph - N/A Rain Light Rain
6:55 AM 33.8 °F 26.4 °F 32.0 °F 93% 29.53 in 1.4 mi ENE 9.2 mph - N/A Snow Light Snow
7:25 AM 33.8 °F 27.0 °F 32.0 °F 93% 29.53 in 1.3 mi ENE 8.1 mph - N/A Snow Light Snow
7:37 AM 33.8 °F 26.4 °F 32.0 °F 93% 29.53 in 0.9 mi ENE 9.2 mph - N/A Snow Light Snow
7:55 AM 32.0 °F 24.2 °F 32.0 °F 100% 29.53 in 0.7 mi ENE 9.2 mph - N/A Snow Light Snow
8:25 AM 32.0 °F 24.2 °F 32.0 °F 100% 29.56 in 0.7 mi NE 9.2 mph - N/A Snow Light Snow
8:28 AM 32.0 °F 24.2 °F 32.0 °F 100% 29.56 in 1.1 mi NE 9.2 mph - N/A Snow Light Snow
8:35 AM 32.0 °F 24.2 °F 32.0 °F 100% 29.56 in 0.9 mi NE 9.2 mph - N/A Snow Light Snow
8:39 AM 32.0 °F 24.2 °F 32.0 °F 100% 29.56 in 1.1 mi NE 9.2 mph - N/A Snow Light Snow
8:41 AM 32.0 °F 23.6 °F 32.0 °F 100% 29.56 in 1.1 mi NE 10.4 mph - N/A Snow Light Snow
8:47 AM 32.0 °F 23.6 °F 32.0 °F 100% 29.56 in 0.9 mi NE 10.4 mph - N/A Snow Light Snow
8:55 AM 32.0 °F 23.6 °F 32.0 °F 100% 29.56 in 0.9 mi NE 10.4 mph - N/A Snow Light Snow
8:57 AM 32.0 °F 23.6 °F 32.0 °F 100% 29.56 in 1.1 mi NE 10.4 mph - N/A Snow Light Snow
9:04 AM 32.0 °F 23.6 °F 32.0 °F 100% 29.56 in 0.7 mi NE 10.4 mph - N/A Snow Light Snow
9:08 AM 32.0 °F 23.6 °F 32.0 °F 100% 29.56 in 1.1 mi NE 10.4 mph - N/A Snow Light Snow
9:14 AM 32.0 °F 24.2 °F 32.0 °F 100% 29.56 in 0.9 mi NE 9.2 mph - N/A Snow Light Snow
9:20 AM 32.0 °F 23.6 °F 32.0 °F 100% 29.56 in 1.0 mi NE 10.4 mph - N/A Snow Light Snow
9:25 AM 32.0 °F 23.6 °F 32.0 °F 100% 29.56 in 1.0 mi NE 10.4 mph - N/A Snow Light Snow
9:30 AM 32.0 °F 23.6 °F 32.0 °F 100% 29.56 in 0.9 mi NE 10.4 mph - N/A Snow Light Snow
9:34 AM 32.0 °F 23.6 °F 32.0 °F 100% 29.56 in 1.1 mi NE 10.4 mph - N/A Snow Light Snow
9:36 AM 32.0 °F 23.6 °F 32.0 °F 100% 29.56 in 0.8 mi NE 10.4 mph - N/A Snow Light Snow
9:42 AM 32.0 °F 24.2 °F 32.0 °F 100% 29.56 in 1.0 mi NE 9.2 mph - N/A Snow Light Snow
9:44 AM 32.0 °F 23.6 °F 32.0 °F 100% 29.56 in 0.8 mi NE 10.4 mph - N/A Snow Light Snow
9:47 AM 32.0 °F 23.6 °F 32.0 °F 100% 29.56 in 0.8 mi NE 10.4 mph - N/A Snow Light Snow
9:55 AM 32.0 °F 24.2 °F 32.0 °F 100% 29.56 in 0.8 mi NE 9.2 mph - N/A Snow Light Snow
10:05 AM 32.0 °F 23.6 °F 32.0 °F 100% 29.56 in 1.0 mi NE 10.4 mph - N/A Snow Light Snow
10:17 AM 32.0 °F 24.8 °F 32.0 °F 100% 29.56 in 1.1 mi NE 8.1 mph - N/A Snow Light Snow
10:25 AM 32.0 °F 24.2 °F 32.0 °F 100% 29.56 in 1.2 mi NE 9.2 mph - N/A Snow Light Snow
10:55 AM 32.0 °F 23.0 °F 32.0 °F 100% 29.59 in 1.5 mi NE 11.5 mph - N/A Snow Light Snow
11:25 AM 32.0 °F 22.5 °F 32.0 °F 100% 29.59 in 1.7 mi NE 12.7 mph - N/A Snow Light Snow
11:55 AM 32.0 °F 22.5 °F 32.0 °F 100% 29.59 in 1.5 mi NE 12.7 mph - N/A Snow Light Snow
12:25 PM 33.8 °F 25.8 °F 32.0 °F 93% 29.62 in 1.8 mi NE 10.4 mph - N/A Snow Light Snow
12:55 PM 33.8 °F 26.4 °F 32.0 °F 93% 29.62 in 1.6 mi NNE 9.2 mph - N/A Snow Light Snow
1:25 PM 33.8 °F 27.0 °F 32.0 °F 93% 29.62 in - NNE 8.1 mph - N/A Snow Light Snow
1:28 PM 33.8 °F 26.4 °F 32.0 °F 93% 29.65 in - NNE 9.2 mph - N/A Rain Rain
1:43 PM 33.8 °F 27.0 °F 33.8 °F 100% 29.65 in 3.1 mi NNE 8.1 mph - N/A Rain Light Rain
1:55 PM 33.8 °F 26.4 °F 33.8 °F 100% 29.65 in 3.1 mi NNE 9.2 mph - N/A   Light Drizzle
2:05 PM 33.8 °F 25.8 °F 32.0 °F 93% 29.65 in 4.3 mi NNE 10.4 mph - N/A   Light Drizzle
2:25 PM 35.6 °F 29.2 °F 32.0 °F 87% 29.65 in 5.0 mi NNE 8.1 mph - N/A Snow Light Snow Grains
2:41 PM 35.6 °F 28.6 °F 32.0 °F 87% 29.68 in 5.0 mi NNE 9.2 mph - N/A   Overcast
2:55 PM 35.6 °F 28.6 °F 32.0 °F 87% 29.68 in 5.6 mi North 9.2 mph - N/A   Overcast
3:16 PM 35.6 °F 28.6 °F 32.0 °F 87% 29.68 in 5.6 mi NE 9.2 mph - N/A   Overcast
3:25 PM 35.6 °F 28.6 °F 32.0 °F 87% 29.68 in 5.6 mi NE 9.2 mph - N/A   Overcast
3:33 PM 35.6 °F 28.6 °F 32.0 °F 87% 29.68 in 6.2 mi NE 9.2 mph - N/A   Overcast
3:44 PM 35.6 °F 28.6 °F 32.0 °F 87% 29.71 in 5.6 mi NNE 9.2 mph - N/A   Overcast
3:55 PM 35.6 °F 30.7 °F 32.0 °F 87% 29.71 in 5.0 mi NNE 5.8 mph - N/A   Overcast
4:00 PM 35.6 °F 29.9 °F 32.0 °F 87% 29.71 in 5.0 mi NNE 6.9 mph - N/A   Overcast
4:17 PM 35.6 °F 30.7 °F 32.0 °F 87% 29.71 in 5.0 mi NNE 5.8 mph - N/A   Overcast
4:25 PM 35.6 °F 30.7 °F 32.0 °F 87% 29.71 in 5.6 mi NNE 5.8 mph - N/A   Overcast
4:36 PM 35.6 °F 31.7 °F 32.0 °F 87% 29.74 in 4.3 mi NE 4.6 mph - N/A   Overcast
4:55 PM 35.6 °F 32.8 °F 32.0 °F 87% 29.74 in 5.6 mi NE 3.5 mph - N/A   Overcast
5:25 PM 35.6 °F 32.8 °F 32.0 °F 87% 29.74 in 6.2 mi North 3.5 mph - N/A   Overcast
5:46 PM 37.4 °F 33.8 °F 30.2 °F 75% 29.77 in 6.2 mi North 4.6 mph - N/A   Overcast
5:55 PM 37.4 °F 32.1 °F 30.2 °F 75% 29.77 in 6.2 mi North 6.9 mph - N/A   Overcast
6:25 PM 35.6 °F 29.2 °F 30.2 °F 81% 29.80 in 6.2 mi North 8.1 mph - N/A   Overcast
6:55 PM 35.6 °F 29.9 °F 30.2 °F 81% 29.80 in 6.2 mi NNW 6.9 mph - N/A   Overcast
7:25 PM 35.6 °F 28.6 °F 30.2 °F 81% 29.83 in 6.2 mi NNW 9.2 mph - N/A   Overcast
7:55 PM 33.8 °F 27.0 °F 30.2 °F 87% 29.86 in 6.2 mi North 8.1 mph - N/A   Overcast
8:25 PM 33.8 °F 27.7 °F 28.4 °F 81% 29.86 in 6.2 mi NNW 6.9 mph - N/A   Overcast
8:29 PM 33.8 °F 27.7 °F 28.4 °F 81% 29.86 in 6.2 mi North 6.9 mph - N/A   Overcast
8:55 PM 33.8 °F 29.6 °F 28.4 °F 81% 29.89 in 6.2 mi North 4.6 mph - N/A   Overcast
9:02 PM 33.8 °F 29.6 °F 28.4 °F 81% 29.89 in 6.2 mi North 4.6 mph - N/A   Overcast
9:12 PM 33.8 °F 29.6 °F 28.4 °F 81% 29.89 in 6.2 mi NW 4.6 mph - N/A   Overcast
9:16 PM 33.8 °F 29.6 °F 28.4 °F 81% 29.89 in 6.2 mi NW 4.6 mph - N/A   Overcast
9:25 PM 33.8 °F 28.6 °F 28.4 °F 81% 29.89 in 6.2 mi NNW 5.8 mph - N/A   Overcast
9:39 PM 33.8 °F 29.6 °F 28.4 °F 81% 29.89 in 6.2 mi North 4.6 mph - N/A   Overcast
9:55 PM 33.8 °F 27.7 °F 28.4 °F 81% 29.89 in 6.2 mi NNW 6.9 mph - N/A   Overcast
9:59 PM 33.8 °F 28.6 °F 28.4 °F 81% 29.89 in 6.2 mi North 5.8 mph - N/A   Overcast
10:11 PM 33.8 °F 28.6 °F 28.4 °F 81% 29.92 in 6.2 mi North 5.8 mph - N/A   Overcast
10:25 PM 33.8 °F 27.0 °F 28.4 °F 81% 29.92 in 6.2 mi North 8.1 mph - N/A   Overcast
10:43 PM 33.8 °F 27.7 °F 28.4 °F 81% 29.92 in 6.2 mi North 6.9 mph - N/A   Overcast
10:52 PM 33.8 °F 29.6 °F 28.4 °F 81% 29.92 in 6.2 mi NNW 4.6 mph - N/A   Overcast
10:55 PM 33.8 °F 29.6 °F 28.4 °F 81% 29.92 in 6.2 mi NNW 4.6 mph - N/A   Overcast
11:25 PM 33.8 °F 28.6 °F 26.6 °F 75% 29.95 in 6.2 mi NNW 5.8 mph - N/A   Overcast
11:55 PM 33.8 °F 27.7 °F 26.6 °F 75% 29.95 in 6.2 mi NNW 6.9 mph - N/A   Overcast